[[{"header":{"parameterUnit":"m.s-1","parameterCategory":1,"la1":30.2991,"la2":30.254,"lo1":-89.0895,"lo2":-89.0444,"dy":0.0017,"dx":0.0017,"nx":28,"ny":28,"refTime":"2023-08-10T03:00:00:Z","depth":0,"parameterNumber":2,"parameterNumberName":"U-component_of_WINDS"},"data":[0,0,0,0,0,0,0,0,0,0,0,0,0,0,0,0,0,0,0,0,0,0,0,0,0,0,0,0,0,0,0,0,0,0,0,0,0,0,0,0,0,0,0,0,0,0,0,0,0,0,0,0,0,0,0,0,0,0,1.9003,1.9005,0,1.9216,1.9219,1.9221,1.9224,1.9222,1.9219,1.9216,1.9444,1.9452,1.946,0,0,0,0,0,0,0,0,0,0,0,0,0,1.8606,1.8614,1.9002,1.9005,1.9008,1.9216,1.9219,1.9222,1.9225,1.9221,1.9218,1.9215,1.9441,1.9451,1.9461,0,0,0,0,0,0,0,0,0,0,0,0,0,1.8795,1.8616,1.9002,1.9034,1.9039,1.9215,1.9219,1.9223,1.9225,1.9221,1.9217,1.9213,1.9437,1.945,1.9463,1.9624,0,0,1.9502,1.9507,0,0,0,0,0,0,0,0,1.8785,1.881,1.9027,1.9032,1.9038,1.9189,1.9163,1.9358,1.9227,1.9155,1.9216,1.9211,1.9363,1.9382,1.9431,1.9634,1.9644,1.9503,1.9511,1.9516,1.952,0,0,0,0,0,0,0,1.8771,1.8801,1.9087,1.903,1.9037,1.9041,1.9063,1.92,1.928,1.9161,1.9162,1.9186,1.9365,1.9418,1.9436,1.9647,1.9503,1.9514,1.9522,1.9527,2.0,2.0005,0,0,0,0,0,0,1.8751,1.879,1.9081,1.9094,1.8898,1.9052,1.9076,1.9145,1.9278,1.9294,1.919,1.9186,1.9398,1.9421,1.9444,1.9646,1.9516,1.9528,1.9536,1.9995,2.0001,2.0007,0,0,0,0,0,0,1.8742,1.8776,1.9072,1.8942,1.898,1.9063,1.914,1.9151,1.9205,1.93,1.9315,1.9229,1.9396,1.9426,1.958,1.9654,1.9534,1.9546,1.999,1.9997,2.0004,2.0048,0,0,0,0,0,0,1.8731,1.8773,1.8833,1.8943,1.8987,1.9201,1.9144,1.9159,1.9226,1.9223,1.934,1.9356,1.9395,1.9561,1.9593,1.9669,1.9556,1.9984,1.9993,2.0002,2.004,2.0055,2.0069,0,0,0,0,0,1.8716,1.8837,1.8836,1.8871,1.9062,1.9205,1.923,1.9271,1.9231,1.9294,1.9356,1.9352,1.964,1.9576,1.9612,1.9694,1.9979,1.999,2.0001,2.0034,2.0052,2.0068,0,0,0,0,0,0,1.8735,1.8852,1.8852,1.9011,1.9098,1.9205,1.9285,1.9288,1.939,1.9383,1.9432,1.9458,1.9613,1.9668,1.9595,1.986,1.9805,1.9824,1.9818,1.9837,1.9851,1.9835,1.9567,0,0,0,0,0,1.8757,1.886,1.8958,1.9089,1.9133,1.9201,1.9265,1.9289,1.9382,1.9419,1.9492,1.9585,1.9697,1.9769,1.9877,2.0047,2.0076,2.0122,2.0136,2.0147,2.0164,2.0264,2.0287,2.0042,2.0042,2.0042,0,0,1.8805,1.8882,1.8944,1.9095,1.9165,1.9275,1.9232,1.9349,1.9432,1.9438,1.9588,1.9645,1.9752,1.9916,1.9992,1.9967,2.0238,2.0161,2.017,2.018,2.0278,2.0301,2.0321,2.005,2.0048,2.0047,0,0,1.8948,1.9015,1.9134,1.9205,1.9311,1.9356,1.9385,1.9493,1.953,1.9681,1.9689,1.979,1.998,2.0058,2.0122,2.0299,2.0301,2.0333,2.0409,2.0505,2.0525,2.0542,2.061,2.0633,2.0348,2.0348,2.0348,0,1.8995,1.9157,1.9195,1.9313,1.9381,1.939,1.9513,1.9581,1.9718,1.9767,1.9737,1.9979,2.0051,2.0236,2.0279,2.0329,2.0368,2.032,2.0518,2.0536,2.0553,2.0618,2.0643,2.0352,2.0351,2.0351,2.0351,0,1.9212,1.9325,1.9409,1.954,1.9617,1.9737,1.9797,1.9872,1.9889,1.9939,2.0096,2.0183,2.0311,2.0356,2.0375,2.0546,2.0528,2.0507,2.0454,2.0579,2.0642,2.0667,2.0357,2.0355,2.0354,2.0354,0,0,1.9373,1.9524,1.9555,1.9617,1.9736,1.9826,1.9948,2.0071,2.0137,2.0232,2.0339,2.0501,2.0484,2.0557,2.0585,2.0669,2.081,2.064,2.0643,2.0672,2.101,2.1027,2.1055,2.0811,2.0816,2.082,2.1002,0,1.9533,1.9747,1.9786,1.9976,2.0084,2.0095,2.0202,2.029,2.034,2.0442,2.0499,2.0615,2.0581,2.0626,2.071,2.0775,2.0879,2.0762,2.0917,2.0922,2.0892,2.1087,2.1105,2.1272,2.1026,2.1031,2.1034,0,1.9747,1.9847,2.0046,2.0155,2.0202,2.0297,2.0416,2.0511,2.0612,2.0643,2.0726,2.0746,2.0878,2.0817,2.1003,2.0923,2.0989,2.1031,2.1038,2.1057,2.0987,2.1115,2.1326,2.1353,2.1071,2.1068,2.1066,0,1.985,2.0034,2.0178,2.023,2.0359,2.0427,2.0485,2.0581,2.0654,2.0759,2.0808,2.0926,2.0993,2.1087,2.114,2.1089,2.1324,2.1266,2.1358,2.1357,2.141,2.1406,2.1639,2.1445,2.1445,2.1445,2.1444,0,2.0026,2.0149,2.0227,2.0316,2.0456,2.0501,2.064,2.0697,2.0783,2.0887,2.0904,2.1002,2.1064,2.1172,2.1214,2.1365,2.1394,2.1427,2.1437,2.1428,2.1424,2.1474,2.1465,2.1451,2.145,2.1449,2.1447,0,2.0165,2.0221,2.0381,2.049,2.0521,2.062,2.0715,2.0805,2.0855,2.0987,2.1021,2.1103,2.1231,2.1292,2.1452,2.1481,2.1654,2.1654,2.1619,2.1624,2.1715,2.1707,2.199,2.2032,2.1807,2.1809,2.1811,0,2.0275,2.037,2.049,2.056,2.0619,2.0731,2.0805,2.0855,2.0933,2.1057,2.1133,2.1262,2.1368,2.1574,2.165,2.1773,2.178,2.1871,2.1799,2.1788,2.1787,2.1782,2.1795,2.1885,2.1887,2.1889,2.189,0,2.0467,2.0491,2.0596,2.0713,2.0801,2.0896,2.099,2.1047,2.1112,2.1199,2.133,2.1412,2.1576,2.1706,2.1835,2.1898,2.1908,2.1912,2.1941,2.1934,2.1911,2.1929,2.1659,2.1906,2.1904,2.1903,2.1902,2.1902,2.0598,2.0685,2.0784,2.0902,2.0977,2.1065,2.1156,2.1218,2.1327,2.1463,2.1486,2.1627,2.173,2.1905,2.1973,2.2087,2.2066,2.2107,2.2118,2.2128,2.2136,2.1889,2.211,2.211,2.2109,2.2109,2.2109,0,2.0794,2.0859,2.0967,2.1097,2.1192,2.1188,2.1293,2.1374,2.1496,2.159,2.1694,2.1848,2.1974,2.206,2.219,2.2265,2.2273,2.2298,2.2295,2.2311,2.2144,2.2108,2.229,2.229,2.229,2.229,2.229,2.229,2.0908,2.1056,2.1092,2.128,2.1344,2.148,2.1541,2.1624,2.17,2.1869,2.1974,2.2028,2.2122,2.2259,2.2377,2.2399,2.2449,2.2475,2.2498,2.2341,2.2322,2.2304,2.2271,2.2484,2.2484,2.2656,2.2658,2.2659]},{"header":{"parameterUnit":"m.s-1","parameterCategory":1,"la1":30.2991,"la2":30.254,"lo1":-89.0895,"lo2":-89.0444,"dy":0.0017,"dx":0.0017,"nx":28,"ny":28,"refTime":"2023-08-10T03:00:00:Z","depth":0,"parameterNumber":3,"parameterNumberName":"V-component_of_WINDS"},"data":[0,0,0,0,0,0,0,0,0,0,0,0,0,0,0,0,0,0,0,0,0,0,0,0,0,0,0,0,0,0,0,0,0,0,0,0,0,0,0,0,0,0,0,0,0,0,0,0,0,0,0,0,0,0,0,0,0,0,3.8721,3.8723,0,3.8923,3.8925,3.8927,3.8929,3.8927,3.8924,3.8922,3.9127,3.9135,3.9143,0,0,0,0,0,0,0,0,0,0,0,0,0,3.8337,3.8344,3.872,3.8723,3.8726,3.8922,3.8925,3.8928,3.893,3.8927,3.8924,3.8921,3.9125,3.9134,3.9143,0,0,0,0,0,0,0,0,0,0,0,0,0,3.8517,3.8346,3.872,3.875,3.8755,3.8922,3.8925,3.8928,3.893,3.8927,3.8923,3.8919,3.9121,3.9133,3.9145,3.9294,0,0,3.9181,3.9186,0,0,0,0,0,0,0,0,3.8507,3.8532,3.8743,3.8749,3.8754,3.8897,3.8865,3.9051,3.8931,3.8864,3.8922,3.8917,3.9054,3.9071,3.9117,3.9304,3.9312,3.9182,3.9189,3.9194,3.9197,0,0,0,0,0,0,0,3.8495,3.8523,3.88,3.8746,3.8753,3.8754,3.8775,3.89,3.8978,3.8869,3.887,3.8894,3.9056,3.9106,3.9122,3.9315,3.9181,3.9192,3.9199,3.9204,3.9638,3.9642,0,0,0,0,0,0,3.8476,3.8512,3.8794,3.8806,3.8619,3.8764,3.8788,3.8855,3.8976,3.8991,3.8897,3.8893,3.9087,3.9108,3.9129,3.9314,3.9194,3.9205,3.9211,3.9633,3.9638,3.9643,0,0,0,0,0,0,3.8468,3.8501,3.8786,3.866,3.8696,3.8775,3.885,3.8861,3.8911,3.8997,3.9011,3.8934,3.9085,3.9112,3.9254,3.9321,3.921,3.9221,3.9628,3.9635,3.9641,3.9684,0,0,0,0,0,0,3.8457,3.8498,3.8556,3.8661,3.8703,3.8907,3.8854,3.8868,3.8931,3.8928,3.9035,3.9049,3.9084,3.9236,3.9265,3.9335,3.923,3.9622,3.9631,3.9639,3.9677,3.9691,3.9704,0,0,0,0,0,3.8443,3.8559,3.8559,3.8593,3.8776,3.8911,3.8935,3.8973,3.8937,3.8995,3.9051,3.9046,3.9309,3.925,3.9283,3.9358,3.9618,3.9628,3.9638,3.9671,3.9688,3.9703,0,0,0,0,0,0,3.8458,3.8573,3.8574,3.8727,3.881,3.8911,3.8986,3.899,3.9084,3.9077,3.912,3.9144,3.9285,3.9335,3.9269,3.951,3.9459,3.9476,3.9473,3.949,3.9503,3.9489,3.924,0,0,0,0,0,3.848,3.858,3.8674,3.8801,3.8842,3.8907,3.8967,3.899,3.9076,3.9111,3.9177,3.9261,3.9363,3.9429,3.9527,3.9684,3.9708,3.9751,3.9765,3.9775,3.979,3.9879,3.99,3.9676,3.9676,3.9676,0,0,3.8525,3.86,3.866,3.8806,3.8872,3.8975,3.8936,3.9046,3.9124,3.9127,3.9266,3.9317,3.9414,3.9564,3.9634,3.961,3.9857,3.9788,3.9796,3.9805,3.9891,3.9912,3.9931,3.9683,3.9682,3.9681,0,0,3.866,3.8726,3.8839,3.8907,3.9009,3.9051,3.9079,3.9181,3.9215,3.9355,3.9361,3.9453,3.9626,3.9696,3.9754,3.9917,3.9917,3.9948,4.0018,4.0104,4.0122,4.0138,4.0198,4.0219,3.9962,3.9962,3.9962,0,3.8702,3.8858,3.8897,3.9009,3.9073,3.9082,3.9198,3.9262,3.939,3.9434,3.9406,3.9627,3.9692,3.986,3.99,3.9946,3.9979,3.9936,4.0116,4.0133,4.0148,4.0206,4.0228,3.9965,3.9965,3.9965,3.9964,0,3.8907,3.9015,3.9095,3.922,3.9293,3.9406,3.9462,3.9532,3.9548,3.9594,3.9737,3.9816,3.9932,3.9973,3.9989,4.0144,4.0127,4.0107,4.0057,4.0172,4.0227,4.025,3.997,3.9969,3.9968,3.9967,0,0,3.9057,3.9203,3.9232,3.929,3.9403,3.9488,3.9602,3.9716,3.9776,3.9863,3.9961,4.0109,4.0092,4.0158,4.0182,4.0258,4.0385,4.0229,4.0232,4.0257,4.0563,4.0578,4.0603,4.0385,4.0389,4.0392,4.0555,0,3.9206,3.9409,3.9448,3.9625,3.9727,3.9738,3.9837,3.9918,3.9964,4.0057,4.0107,4.0213,4.0181,4.0222,4.0297,4.0353,4.0447,4.0342,4.0477,4.0481,4.0454,4.0632,4.0648,4.0798,4.0577,4.0581,4.0583,0,3.9406,3.9501,3.9689,3.9791,3.9835,3.9924,4.0033,4.0121,4.0213,4.0241,4.0316,4.0332,4.0452,4.0395,4.0561,4.0489,4.0546,4.0583,4.059,4.0605,4.054,4.0654,4.0847,4.087,4.0617,4.0615,4.0612,0,3.9499,3.9674,3.981,3.9858,3.998,4.0043,4.0096,4.0185,4.0251,4.0346,4.039,4.0497,4.0556,4.0639,4.0684,4.0638,4.0848,4.0794,4.0876,4.0875,4.092,4.0917,4.1127,4.0954,4.0954,4.0953,4.0953,0,3.9662,3.9777,3.9853,3.9937,4.0066,4.011,4.0237,4.029,4.0369,4.0463,4.0478,4.0566,4.062,4.0716,4.0752,4.0885,4.0911,4.0938,4.0947,4.0938,4.0935,4.0977,4.0969,4.096,4.0958,4.0957,4.0956,0,3.9789,3.9844,3.9993,4.0097,4.0126,4.0217,4.0306,4.0388,4.0434,4.0554,4.0584,4.0657,4.0771,4.0824,4.0965,4.0989,4.1142,4.1142,4.1111,4.1115,4.1194,4.1187,4.144,4.1477,4.1278,4.128,4.1281,0,3.989,3.9979,4.0093,4.0158,4.0213,4.0317,4.0386,4.0432,4.0504,4.0616,4.0685,4.08,4.0895,4.1077,4.1142,4.1251,4.1255,4.1336,4.1271,4.1261,4.1259,4.1254,4.1264,4.1348,4.135,4.1352,4.1353,0,4.0064,4.0088,4.0187,4.0296,4.0378,4.0466,4.0553,4.0605,4.0665,4.0744,4.0862,4.0936,4.108,4.1195,4.1308,4.1363,4.137,4.1373,4.1398,4.1391,4.1371,4.1385,4.1145,4.1367,4.1366,4.1365,4.1364,4.1364,4.0183,4.0263,4.0357,4.0467,4.0538,4.0619,4.0701,4.0759,4.0858,4.0981,4.1002,4.1127,4.1219,4.1372,4.1431,4.153,4.1511,4.1547,4.1556,4.1565,4.1571,4.1353,4.1551,4.155,4.155,4.155,4.1549,0,4.036,4.0421,4.0522,4.0644,4.0731,4.0729,4.0825,4.0898,4.1009,4.1094,4.1188,4.1324,4.1435,4.151,4.1624,4.1689,4.1695,4.1717,4.1714,4.1727,4.158,4.1548,4.1711,4.1711,4.1711,4.1711,4.1711,4.1711,4.0462,4.06,4.0634,4.0807,4.0867,4.0992,4.1047,4.1122,4.1191,4.1343,4.1436,4.1484,4.1566,4.1686,4.1789,4.1808,4.185,4.1874,4.1892,4.1754,4.1737,4.1721,4.1691,4.1882,4.1882,4.2032,4.2033,4.2034]}]]